EW7590 Weather Reports


time (UTC)temp
F
wind
direction
speed
knots
gust
knots
rain 1hr
in
rain 24hr
in
rain mn
in
humidity
%
barometer
mb
20220811233502 75 178 0.9 3.5 0.00 0.00 0.00 71 1011.0
20220811233003 76 156 0.9 3.5 0.00 0.00 0.00 70 1010.9
20220811231502 76 172 1.7 3.5 0.00 0.00 0.00 69 1010.8
20220811230545 77 91 0.9 3.5 0.00 0.00 0.00 69 1010.7
20220811230023 77 115 0.9 3.5 0.00 0.00 0.00 69 1010.6
20220811225545 77 135 0.9 3.5 0.00 0.00 0.00 69 1010.5
20220811225003 77 116 0.9 7.0 0.00 0.00 0.00 69 1010.5
20220811224544 77 69 1.7 7.8 0.00 0.00 0.00 68 1010.4
20220811224002 78 70 2.6 7.8 0.00 0.00 0.00 68 1010.4
20220811223524 78 60 2.6 6.1 0.00 0.00 0.00 67 1010.3
20220811223002 79 57 1.7 4.3 0.00 0.00 0.00 65 1010.2
20220811222544 79 86 0.9 1.7 0.00 0.00 0.00 58 1010.3
20220811222023 79 100 0.0 2.6 0.00 0.00 0.00 58 1010.3
20220811221545 79 88 0.9 2.6 0.00 0.00 0.00 58 1010.3
20220811221024 79 171 0.9 2.6 0.00 0.00 0.00 58 1010.4
20220811220523 79 163 0.0 1.7 0.00 0.00 0.00 55 1010.2
20220811220003 79 154 0.9 1.7 0.00 0.00 0.00 56 1010.3
20220811215523 79 229 0.0 1.7 0.00 0.00 0.00 56 1010.4
20220811215003 79 193 0.9 2.6 0.00 0.00 0.00 56 1010.3
20220811213545 79 170 1.7 3.5 0.00 0.00 0.00 56 1010.5
20220811210002 80 176 0.9 4.3 0.00 0.00 0.00 54 1010.6
20220811204502 80 169 2.6 5.2 0.00 0.00 0.00 56 1010.6
20220811204002 80 166 1.7 5.2 0.00 0.00 0.00 54 1010.7
20220811203524 80 245 0.9 3.5 0.00 0.00 0.00 56 1010.7
20220811203002 80 190 0.9 4.3 0.00 0.00 0.00 57 1010.8
20220811202544 80 165 0.9 4.3 0.00 0.00 0.00 56 1010.9
20220811202003 80 176 1.7 4.3 0.00 0.00 0.00 57 1010.9
20220811201502 80 209 0.9 4.3 0.00 0.00 0.00 57 1010.9
20220811201044 79 197 0.9 2.6 0.00 0.00 0.00 56 1010.9
20220811200502 79 183 1.7 2.6 0.00 0.00 0.00 56 1010.9
20220811200023 79 198 0.9 3.5 0.00 0.00 0.00 56 1010.8
20220811195048 80 165 1.7 4.3 0.00 0.00 0.00 55 1010.9
20220811194524 80 200 0.9 3.5 0.00 0.00 0.00 56 1010.8
20220811194002 80 162 0.9 3.5 0.00 0.00 0.00 54 1010.9
20220811193523 80 189 1.7 2.6 0.00 0.00 0.00 55 1010.9
20220811193003 80 196 0.9 2.6 0.00 0.00 0.00 54 1010.9
20220811192502 80 179 1.7 2.6 0.00 0.00 0.00 55 1011.0
20220811192003 81 156 0.9 2.6 0.00 0.00 0.00 55 1011.0
20220811191045 81 155 0.9 3.5 0.00 0.00 0.00 53 1011.1
20220811190502 80 301 1.7 3.5 0.00 0.00 0.00 56 1011.1
20220811190044 80 164 0.0 3.5 0.00 0.00 0.00 56 1011.1
20220811185502 80 156 0.9 3.5 0.00 0.00 0.00 56 1011.1
20220811185002 80 164 0.9 4.3 0.00 0.00 0.00 55 1011.2
20220811184502 80 175 2.6 4.3 0.00 0.00 0.00 57 1011.1
20220811184024 80 126 0.0 4.3 0.00 0.00 0.00 56 1011.1
20220811183526 80 191 1.7 3.5 0.00 0.00 0.00 56 1011.3
20220811183003 80 183 2.6 3.5 0.00 0.00 0.00 57 1011.4
20220811182545 80 184 2.6 3.5 0.00 0.00 0.00 58 1011.4
20220811182049 80 149 1.7 4.3 0.00 0.00 0.00 56 1011.3
20220811181524 80 94 0.9 4.3 0.00 0.00 0.00 55 1011.3
20220811181002 80 161 0.9 5.2 0.00 0.00 0.00 56 1011.4
20220811180545 80 254 1.7 5.2 0.00 0.00 0.00 54 1011.5
20220811180024 80 203 0.9 2.6 0.00 0.00 0.00 60 1011.4
20220811175028 79 61 1.7 2.6 0.00 0.00 0.00 61 1011.6
20220811174523 79 122 0.9 5.2 0.00 0.00 0.00 62 1011.8
20220811174044 79 242 0.0 5.2 0.00 0.00 0.00 61 1011.9
20220811173503 78 166 1.7 4.3 0.00 0.00 0.00 60 1012.1
20220811173002 78 208 1.7 4.3 0.00 0.00 0.00 59 1012.1
20220811172024 78 186 0.9 3.5 0.00 0.00 0.00 64 1012.2
20220811171523 77 275 1.7 3.5 0.00 0.00 0.00 63 1012.3
20220811171003 78 339 0.9 2.6 0.00 0.00 0.00 63 1012.3
20220811170523 77 231 0.9 2.6 0.00 0.00 0.00 65 1012.3
20220811170007 77 197 0.9 3.5 0.00 0.00 0.00 66 1012.4
20220811165503 77 187 0.0 3.5 0.00 0.00 0.00 67 1012.4
20220811165002 77 188 0.9 2.6 0.00 0.00 0.00 68 1012.3
20220811164502 77 200 0.0 2.6 0.00 0.00 0.00 68 1012.6
20220811163502 76 89 0.9 3.5 0.00 0.00 0.00 71 1012.5
20220811163003 76 95 0.9 4.3 0.00 0.00 0.00 71 1012.5
20220811162544 76 54 3.5 4.3 0.00 0.00 0.00 70 1012.5
20220811162002 76 46 0.0 3.5 0.00 0.00 0.00 71 1012.6
20220811161502 76 58 1.7 3.5 0.00 0.00 0.00 72 1012.8
20220811161002 76 67 1.7 3.5 0.00 0.00 0.00 72 1012.7
20220811160547 76 85 0.9 3.5 0.00 0.00 0.00 72 1012.7
20220811160045 75 111 0.9 3.5 0.00 0.00 0.00 73 1012.7
20220811155502 75 130 0.9 1.7 0.00 0.00 0.00 72 1012.9
20220811155002 75 126 0.0 2.6 0.00 0.00 0.00 72 1012.7
20220811154503 75 70 0.9 2.6 0.00 0.00 0.00 72 1012.7
20220811154044 76 86 0.9 1.7 0.00 0.00 0.00 71 1012.8
20220811153502 76 102 0.9 2.6 0.00 0.00 0.00 72 1012.9
20220811153024 76 160 1.7 2.6 0.00 0.00 0.00 72 1012.9
20220811152523 76 175 0.9 2.6 0.00 0.00 0.00 71 1012.8
20220811152002 76 102 0.9 2.6 0.00 0.00 0.00 74 1012.8
20220811151503 75 106 0.9 3.5 0.00 0.00 0.00 72 1012.7
20220811151024 75 143 1.7 3.5 0.00 0.00 0.00 72 1012.8
20220811150045 75 88 0.9 3.5 0.00 0.00 0.00 73 1012.9
20220811145503 75 115 0.9 2.6 0.00 0.00 0.00 74 1012.9
20220811145044 75 87 0.9 2.6 0.00 0.00 0.00 74 1012.9
20220811144523 74 181 0.0 2.6 0.00 0.00 0.00 74 1013.0
20220811144002 75 142 0.9 2.6 0.00 0.00 0.00 74 1013.0
20220811143024 74 76 0.9 1.7 0.00 0.00 0.00 75 1013.1
20220811142503 74 111 0.9 1.7 0.00 0.00 0.00 75 1013.2
20220811142003 74 33 0.0 1.7 0.00 0.00 0.00 75 1013.2
20220811141523 74 129 0.9 1.7 0.00 0.00 0.00 74 1013.2
20220811140502 73 137 0.0 1.7 0.00 0.00 0.00 76 1013.2
20220811140024 73 137 0.0 1.7 0.00 0.00 0.00 77 1013.3
20220811135503 73 152 0.0 0.9 0.00 0.00 0.00 77 1013.3
20220811135002 73 194 0.0 0.9 0.00 0.00 0.00 78 1013.2
20220811134503 73 263 0.0 0.9 0.00 0.00 0.00 77 1013.2
20220811134002 73 180 0.0 1.7 0.00 0.00 0.00 78 1013.2
20220811133544 72 179 0.0 1.7 0.00 0.00 0.00 78 1013.4
20220811133003 72 315 0.9 2.6 0.00 0.00 0.00 78 1013.3
20220811132545 72 331 0.9 2.6 0.00 0.00 0.00 78 1013.4
20220811132044 72 274 0.0 1.7 0.00 0.00 0.00 78 1013.4
20220811131502 72 252 0.9 3.5 0.00 0.00 0.00 78 1013.5
20220811131003 72 221 0.0 3.5 0.00 0.00 0.00 78 1013.5
20220811130502 72 71 0.0 1.7 0.00 0.00 0.00 79 1013.4
20220811130003 72 72 0.0 2.6 0.00 0.00 0.00 80 1013.3
20220811125502 71 35 0.9 2.6 0.00 0.00 0.00 80 1013.4
20220811125002 71 69 0.9 1.7 0.00 0.00 0.00 82 1013.4
20220811124524 71 85 0.0 1.7 0.00 0.00 0.00 82 1013.6
20220811124002 70 124 0.9 1.7 0.00 0.00 0.00 82 1013.6
20220811123502 70 171 0.0 1.7 0.00 0.00 0.00 82 1013.6
20220811123002 70 149 0.9 1.7 0.00 0.00 0.00 82 1013.6
20220811122502 70 75 0.0 1.7 0.00 0.00 0.00 83 1013.6
20220811122002 70 32 0.0 0.9 0.00 0.00 0.00 83 1013.5
20220811121524 70 33 0.0 1.7 0.00 0.00 0.00 83 1013.4
20220811121045 69 33 0.0 2.6 0.00 0.00 0.00 84 1013.5
20220811120502 69 33 1.7 2.6 0.00 0.00 0.00 83 1013.5
20220811120002 69 54 0.9 2.6 0.00 0.00 0.00 84 1013.6
20220811115503 69 91 0.0 0.9 0.00 0.00 0.00 84 1013.7
20220811115023 69 98 0.0 1.7 0.00 0.00 0.00 85 1013.7
20220811114544 69 98 0.0 2.6 0.00 0.00 0.00 85 1013.7
20220811114002 68 85 1.7 2.6 0.00 0.00 0.00 85 1013.7
20220811113503 68 28 0.0 1.7 0.00 0.00 0.00 86 1013.6
20220811113023 68 28 0.0 0.9 0.00 0.00 0.00 85 1013.7
20220811112502 68 28 0.0 0.9 0.00 0.00 0.00 86 1013.8
20220811112002 68 28 0.0 0.9 0.00 0.00 0.00 86 1013.9
20220811111502 68 28 0.0 0.0 0.00 0.00 0.00 86 1013.9
20220811110523 67 28 0.0 0.0 0.00 0.00 0.00 87 1013.9
20220811110045 67 28 0.0 0.0 0.00 0.00 0.00 87 1013.7
20220811105524 67 28 0.0 0.0 0.00 0.00 0.00 87 1013.7
20220811105002 67 28 0.0 0.9 0.00 0.00 0.00 87 1013.8
20220811104003 67 28 0.0 0.9 0.00 0.00 0.00 87 1013.6
20220811103524 67 28 0.0 0.0 0.00 0.00 0.00 87 1013.7
20220811103024 67 28 0.0 0.0 0.00 0.00 0.00 87 1013.6
20220811102502 67 28 0.0 0.9 0.00 0.00 0.00 88 1013.6
20220811102002 67 28 0.0 0.9 0.00 0.00 0.00 87 1013.5
20220811101524 66 24 0.0 0.0 0.00 0.00 0.00 87 1013.6
20220811100545 66 24 0.0 0.0 0.00 0.00 0.00 87 1013.5
20220811100023 66 24 0.0 0.9 0.00 0.00 0.00 87 1013.6
20220811095524 66 24 0.0 0.9 0.00 0.00 0.00 87 1013.4
20220811095002 66 24 0.9 0.9 0.00 0.00 0.00 87 1013.5
20220811094505 66 24 0.0 0.9 0.00 0.00 0.00 87 1013.7
20220811094003 66 24 0.0 0.9 0.00 0.00 0.00 87 1013.5
20220811093502 66 24 0.0 0.9 0.00 0.00 0.00 87 1013.5
20220811093044 66 24 0.0 0.0 0.00 0.00 0.00 87 1013.6
20220811092502 66 24 0.0 0.0 0.00 0.00 0.00 87 1013.6
20220811092024 66 24 0.0 0.0 0.00 0.00 0.00 87 1013.8
20220811091523 66 24 0.0 0.0 0.00 0.00 0.00 87 1013.9
20220811090002 66 24 0.0 0.9 0.00 0.00 0.00 87 1013.9
20220811085503 66 24 0.0 0.9 0.00 0.00 0.00 86 1014.0
20220811085023 66 24 0.0 0.9 0.00 0.00 0.00 86 1014.1
20220811084503 66 24 0.0 0.9 0.00 0.00 0.00 86 1014.1
20220811083502 66 24 0.0 0.0 0.00 0.00 0.00 86 1014.1
20220811082503 66 24 0.0 0.9 0.00 0.00 0.00 86 1014.3
20220811082045 66 24 0.9 0.9 0.00 0.00 0.00 86 1014.3
20220811081502 66 24 0.0 0.9 0.00 0.00 0.00 86 1014.3
20220811081002 66 24 0.0 0.9 0.00 0.00 0.00 86 1014.3
20220811080524 66 33 0.0 0.9 0.00 0.00 0.00 86 1014.4
20220811080023 66 34 0.0 0.9 0.00 0.00 0.00 86 1014.4
20220811075002 66 60 0.9 1.7 0.00 0.00 0.00 86 1014.6
20220811074048 66 359 0.0 1.7 0.00 0.00 0.00 86 1014.8
20220811073502 66 359 0.0 1.7 0.00 0.00 0.00 86 1014.8
20220811073023 66 35 0.0 0.9 0.00 0.00 0.00 86 1014.8
20220811072502 66 35 0.0 0.9 0.00 0.00 0.00 86 1015.0
20220811072003 66 35 0.0 0.9 0.00 0.00 0.00 86 1015.1
20220811071523 66 35 0.0 0.9 0.00 0.00 0.00 86 1015.1
20220811070504 66 35 0.0 0.9 0.00 0.00 0.00 86 1015.3
20220811070045 66 35 0.0 1.7 0.00 0.00 0.00 85 1015.3
20220811065502 66 35 0.9 1.7 0.00 0.00 0.00 85 1015.3
20220811065045 66 34 0.0 1.7 0.00 0.00 0.00 86 1015.3
20220811064503 66 35 0.9 1.7 0.00 0.00 0.00 85 1015.3
20220811064023 66 35 0.0 0.9 0.00 0.00 0.00 85 1015.3
20220811063503 66 35 0.0 0.9 0.00 0.00 0.00 85 1015.4
20220811063023 66 35 0.0 0.9 0.00 0.00 0.00 86 1015.3
20220811062502 66 35 0.0 1.7 0.00 0.00 0.00 85 1015.4
20220811062045 66 35 0.9 1.7 0.00 0.00 0.00 85 1015.4
20220811061502 66 9 0.0 1.7 0.00 0.00 0.00 85 1015.4
20220811061002 66 0 0.9 1.7 0.00 0.00 0.00 85 1015.5
20220811060503 66 344 0.0 1.7 0.00 0.00 0.00 85 1015.5
20220811060002 66 10 0.9 1.7 0.00 0.00 0.00 86 1015.6
20220811055023 66 22 0.0 0.0 0.00 0.00 0.00 86 1015.7
20220811054545 66 22 0.0 0.0 0.00 0.00 0.00 86 1015.8
20220811054045 66 22 0.0 1.7 0.00 0.00 0.00 86 1015.9
20220811053545 66 22 0.0 1.7 0.00 0.00 0.00 86 1015.9
20220811052503 66 22 0.0 0.0 0.00 0.00 0.00 86 1016.1
20220811052023 66 22 0.0 0.9 0.00 0.00 0.00 86 1016.1
20220811051503 66 27 0.0 0.9 0.00 0.00 0.00 86 1016.2
20220811051024 66 42 0.0 0.0 0.00 0.00 0.00 86 1016.2
20220811050502 66 42 0.0 0.9 0.00 0.00 0.00 86 1016.2
20220811050003 66 42 0.0 1.7 0.00 0.00 0.00 86 1016.2
20220811045502 66 42 0.0 1.7 0.00 0.00 0.00 86 1016.3
20220811045003 66 21 0.9 1.7 0.00 0.00 0.00 86 1016.2
20220811044553 66 21 0.0 0.9 0.00 0.00 0.00 86 1016.3
20220811044023 65 21 0.0 0.9 0.00 0.00 0.00 86 1016.3
20220811043545 65 20 0.0 0.9 0.00 0.00 0.00 86 1016.4
20220811043024 65 21 0.0 1.7 0.00 0.00 0.00 86 1016.4
20220811042024 66 21 0.0 0.0 0.00 0.00 0.00 85 1016.4
20220811041503 66 21 0.0 0.0 0.00 0.00 0.00 85 1016.3
20220811041044 66 21 0.0 0.9 0.00 0.00 0.00 85 1016.2
20220811040502 66 20 0.0 0.9 0.00 0.00 0.00 85 1016.4
20220811040024 66 72 0.9 0.9 0.00 0.00 0.00 84 1016.6
20220811034545 66 76 0.0 1.7 0.00 0.00 0.00 84 1016.5
20220811034045 66 71 0.9 1.7 0.00 0.00 0.00 84 1016.4
20220811033524 66 95 0.9 1.7 0.00 0.00 0.00 84 1016.4
20220811033002 66 142 0.0 0.9 0.00 0.00 0.00 84 1016.5
20220811032503 66 142 0.0 0.9 0.00 0.00 0.00 84 1016.5
20220811032024 66 142 0.0 1.7 0.00 0.00 0.00 84 1016.4
20220811031523 66 105 0.9 1.7 0.00 0.00 0.00 84 1016.4
20220811031044 66 137 0.0 2.6 0.00 0.00 0.00 84 1016.4
20220811030002 66 116 0.0 1.7 0.00 0.00 0.00 84 1016.5
20220811025503 66 349 0.0 1.7 0.00 0.00 0.00 84 1016.6
20220811025023 66 304 0.9 1.7 0.00 0.00 0.00 83 1016.6
20220811024502 66 79 0.0 2.6 0.00 0.00 0.00 83 1016.6
20220811024003 66 78 0.0 2.6 0.00 0.00 0.00 83 1016.5
20220811022503 66 64 0.0 2.6 0.00 0.00 0.00 82 1016.6
20220811022024 66 89 0.9 2.6 0.00 0.00 0.00 82 1016.7
20220811021502 67 64 0.9 2.6 0.00 0.00 0.00 81 1016.8
20220811021003 67 71 0.0 1.7 0.00 0.00 0.00 81 1016.8
20220811020523 67 78 0.0 3.5 0.00 0.00 0.00 81 1016.9
20220811020002 67 76 0.9 3.5 0.00 0.00 0.00 81 1016.8
20220811015503 67 62 1.7 2.6 0.00 0.00 0.00 80 1016.8
20220811015023 67 71 0.0 2.6 0.00 0.00 0.00 80 1016.9
20220811014503 67 46 0.9 2.6 0.00 0.00 0.00 80 1016.9
20220811014003 67 73 0.9 1.7 0.00 0.00 0.00 80 1017.0
20220811013504 67 73 0.9 2.6 0.00 0.00 0.00 80 1017.0
20220811013002 67 62 1.7 2.6 0.00 0.00 0.00 79 1017.0
20220811012503 67 57 1.7 3.5 0.00 0.00 0.00 79 1017.0
20220811012003 67 59 1.7 3.5 0.00 0.00 0.00 78 1016.9
20220811011502 67 81 0.9 1.7 0.00 0.00 0.00 78 1016.8
20220811011045 67 135 0.0 2.6 0.00 0.00 0.00 78 1016.8
20220811010523 68 82 0.9 2.6 0.00 0.00 0.00 78 1016.9
20220811010023 68 143 0.0 1.7 0.00 0.00 0.00 77 1016.9
20220811005504 68 133 0.0 1.7 0.00 0.00 0.00 77 1016.9
20220811005045 68 81 0.0 1.7 0.00 0.00 0.00 76 1016.8
20220811004524 68 64 0.0 4.3 0.00 0.00 0.00 76 1016.8
20220811004002 68 66 0.9 5.2 0.00 0.00 0.00 76 1016.7
20220811003502 68 56 1.7 5.2 0.00 0.00 0.00 76 1016.6
20220811003002 68 55 1.7 3.5 0.00 0.00 0.00 75 1016.5
20220811002502 68 60 1.7 3.5 0.00 0.00 0.00 75 1016.6
20220811002003 69 95 0.9 3.5 0.00 0.00 0.00 74 1016.5
20220811001502 69 51 0.9 3.5 0.00 0.00 0.00 74 1016.5
20220811001003 69 62 1.7 3.5 0.00 0.00 0.00 74 1016.4
20220811000503 69 76 1.7 3.5 0.00 0.00 0.00 74 1016.3
20220811000023 69 61 0.0 3.5 0.00 0.00 0.00 74 1016.2
20220810235524 69 55 1.7 3.5 0.00 0.00 0.00 74 1016.2
20220810235003 69 66 0.9 2.6 0.00 0.00 0.00 74 1016.3
20220810234523 69 52 0.9 5.2 0.00 0.00 0.00 74 1016.3